CAPE
457 369 299 65 0 0 2 8 0 33 0 6 0 0 0 0 0 0 0 0 0 0 0 0 0 0 0 0 0 0 4 45 38 0 0 17 65 157 324 436 319 179 0 0
319 268 238 195 50 11 4 0 15 51 21 31 12 0 0 0 0 0 0 0 0 0 0 0 0 0 0 0 0 0 9 19 15 0 0 57 115 217 373 418 513 484 470 507
333 236 136 68 35 54 12 8 33 32 20 0 0 0 0 0 0 0 0 0 0 0 0 0 0 0 0 0 0 3 17 20 4 0 2 40 138 302 405 610 612 520 596 829
225 142 50 35 20 64 14 6 41 51 3 0 0 0 0 0 0 0 0 0 0 0 0 0 0 0 0 0 0 2 14 29 2 0 12 41 102 323 434 495 399 591 651 707
236 123 77 6 14 46 25 21 33 16 1 0 1 0 0 0 0 0 0 0 0 0 0 0 0 0 0 9 7 9 3 13 1 0 7 17 99 253 429 438 331 418 652 1296
277 45 63 2 46 43 135 60 5 11 0 0 0 0 0 0 0 0 0 0 0 0 0 0 0 0 0 0 6 9 12 6 0 0 32 63 133 344 430 702 761 601 469 596
84 21 0 44 98 165 103 5 0 0 0 0 0 0 17 5 0 0 0 0 0 0 0 0 0 0 2 1 0 0 0 1 0 0 134 184 357 497 392 656 846 774 604 479
0 0 0 0 8 87 133 6 0 0 0 0 0 0 4 0 32 161 10 0 0 0 0 0 0 4 6 0 0 0 0 0 3 5 76 156 256 294 272 589 803 813 662 745
0 0 0 0 11 110 86 93 0 0 0 0 0 0 0 0 322 116 27 1 0 0 0 0 0 0 1 3 1 13 23 12 4 17 59 59 80 160 396 612 817 908 944 975
0 0 0 0 0 0 62 18 1 0 0 0 0 0 0 123 253 217 97 70 30 1 0 0 16 5 22 15 5 5 14 39 44 24 54 116 105 187 400 598 850 1104 1247 1261
0 0 0 0 0 0 5 9 0 0 0 0 0 0 0 45 212 329 248 73 26 0 5 4 27 9 24 55 1 0 3 49 53 42 40 126 311 479 644 772 925 1136 1261 1335
0 0 0 0 0 0 0 0 0 0 0 0 0 0 0 21 159 334 345 163 23 0 0 2 4 4 48 721 943 54 54 84 110 95 108 150 287 601 798 936 1162 1381 1469 1504
0 0 0 0 0 0 0 0 0 0 0 0 0 0 2 24 179 126 313 170 18 0 0 0 0 4 254 1090 1257 939 365 200 279 358 396 500 579 742 878 1005 1217 1454 1566 1650
0 0 0 0 0 0 0 0 0 0 0 0 0 0 4 168 368 423 289 34 13 0 0 0 37 226 1309 1769 1787 1662 1335 657 469 567 635 757 967 1094 1246 1363 1673 1877 1538 915
0 0 0 0 0 0 0 0 0 0 0 8 1 6 1 322 475 480 328 19 0 0 0 169 567 1193 1746 2048 2026 1890 1728 1583 944 931 1019 1203 1362 1490 1552 1766 1662 1046 524 415
0 17 0 0 0 0 1 0 0 0 0 0 68 75 0 508 663 546 435 159 74 30 507 1234 1780 1689 1458 1384 1658 1873 1825 1703 1277 1239 1349 1494 1638 1726 1706 1493 784 548 363 270
0 45 0 0 0 0 0 1 0 12 17 12 3 16 343 924 849 685 678 468 396 788 1684 1435 1458 1453 1169 1362 1589 1609 1714 1606 1551 1603 1678 1680 1522 1335 989 946 905 786 743 756
0 13 0 35 8 5 0 233 170 148 291 271 323 372 834 1011 1003 965 1003 913 1431 1284 1010 1014 645 268 539 1302 1446 1388 1226 1114 1070 1029 1012 1036 1097 983 828 620 545 534 290 206
0 0 4 6 0 0 67 192 229 399 479 440 653 593 997 1028 1331 1528 1512 1615 1005 1060 652 302 348 304 593 988 1072 1146 1085 1092 1067 1124 1139 1143 990 630 416 302 290 291 259 198
0 0 0 0 0 0 0 86 263 311 223 479 773 862 1074 1394 1390 1483 1502 1390 1305 945 502 449 496 425 550 861 1060 1023 878 819 719 822 874 658 492 426 531 570 490 352 193 124
0 0 0 3 1 0 0 64 169 153 129 233 675 869 1112 1226 1330 1139 1314 1254 968 268 260 354 284 286 265 382 436 478 208 185 517 777 675 521 635 598 559 502 467 284 103 75
0 1 0 0 0 3 10 198 307 104 1 18 235 709 1058 943 902 839 1266 1004 281 165 256 263 277 347 340 377 48 115 369 727 931 895 834 662 583 474 367 224 166 308 69 42
0 0 0 0 0 0 52 48 63 51 53 60 125 414 761 864 822 815 1063 646 207 189 254 251 276 372 423 359 76 119 549 752 621 677 494 342 294 316 231 150 50 3 19 0
0 0 0 0 10 4 78 82 92 188 183 76 53 283 552 703 640 765 732 421 234 193 205 210 284 359 425 329 93 298 652 777 579 370 324 265 137 134 202 37 33 23 2 0
40 24 82 45 158 267 164 111 53 86 71 129 103 204 362 520 462 560 554 338 241 183 151 182 259 346 389 363 254 410 791 894 492 444 430 399 417 450 419 159 99 180 63 0
27 306 312 318 428 399 352 124 99 67 275 219 108 70 125 349 415 496 406 237 175 173 133 158 224 315 392 463 486 524 755 974 919 651 700 777 854 880 700 434 284 0 0 0
CIN
-201 -81 -37 -62 -0 -0 -130 -139 -0 -176 -12 -113 -0 -0 -0 -0 -0 -0 -0 -0 -0 -0 -0 -0 -0 -0 -0 -0 -0 -0 -340 -239 -230 -0 -0 -223 -95 -76 -61 -73 -94 -101 -0 -0
-114 -34 -77 -115 -182 -181 -163 -4 -114 -187 -183 -134 -92 -0 -0 -0 -0 -0 -0 -0 -0 -0 -0 -0 -0 -0 -0 -0 -0 -0 -388 -330 -287 -0 -0 -159 -75 -61 -65 -82 -92 -89 -75 -73
-54 -49 -117 -156 -175 -151 -164 -128 -129 -109 -172 -0 -0 -0 -0 -0 -0 -0 -0 -0 -0 -0 -0 -0 -0 -0 -0 -0 -0 -372 -346 -315 -327 -0 -49 -203 -103 -90 -65 -49 -63 -80 -83 -67
-79 -112 -122 -139 -187 -178 -157 -184 -184 -160 -124 -0 -0 -0 -0 -0 -0 -0 -0 -0 -0 -0 -0 -0 -0 -0 -0 -0 -0 -459 -372 -293 -133 -0 -274 -176 -89 -50 -53 -52 -68 -70 -80 -76
-32 -66 -92 -175 -162 -215 -182 -241 -215 -221 -214 -0 -133 -0 -0 -0 -0 -0 -0 -0 -0 -0 -0 -0 -0 -0 -0 -334 -343 -391 -427 -365 -75 -0 -272 -227 -121 -96 -81 -74 -86 -100 -88 -66
-70 -203 -147 -94 -207 -284 -252 -207 -266 -304 -0 -0 -0 -0 -0 -0 -0 -0 -0 -0 -0 -0 -0 -0 -0 -0 -0 -0 -309 -346 -360 -337 -45 -0 -254 -212 -139 -98 -87 -50 -44 -58 -95 -107
-95 -81 -18 -206 -150 -253 -249 -83 -0 -0 -0 -0 -0 -0 -41 -200 -0 -0 -0 -0 -0 -0 -0 -0 -0 -0 -178 -96 -0 -0 -0 -69 -0 -0 -224 -197 -148 -123 -100 -69 -57 -57 -70 -87
-0 -13 -0 -0 -145 -98 -153 -170 -136 -0 -0 -0 -0 -0 -93 -0 -302 -265 -263 -0 -0 -0 -0 -0 -5 -118 -261 -0 -0 -0 -0 -0 -274 -291 -247 -229 -200 -169 -150 -103 -82 -74 -83 -78
-0 -0 -0 -0 -189 -145 -158 -114 -0 -0 -0 -0 -0 -0 -0 -11 -199 -227 -250 -46 -0 -0 -0 -0 -0 -0 -148 -105 -56 -258 -234 -253 -243 -272 -280 -247 -216 -208 -160 -132 -118 -97 -93 -83
-0 -0 -0 -0 -0 -86 -165 -284 -58 -0 -0 -0 -0 -0 -0 -142 -156 -234 -243 -315 -329 -329 -0 -0 -222 -185 -220 -229 -137 -251 -241 -202 -225 -275 -238 -193 -195 -195 -184 -166 -137 -120 -101 -103
-0 -0 -0 -0 -0 -0 -99 -185 -0 -0 -0 -0 -0 -0 -0 -110 -185 -194 -274 -373 -335 -0 -211 -240 -265 -272 -244 -247 -43 -0 -59 -227 -228 -226 -232 -193 -184 -186 -186 -177 -165 -154 -142 -133
-0 -0 -0 -0 -0 -0 -0 -0 -6 -0 -0 -0 -0 -0 -0 -373 -220 -234 -248 -332 -364 -0 -0 -257 -252 -230 -175 -133 -132 -169 -205 -186 -181 -216 -211 -198 -198 -221 -180 -169 -152 -146 -128 -122
-0 -0 -0 -0 -0 -0 -0 -0 -0 -0 -0 -0 -0 -0 -397 -424 -241 -289 -238 -326 -392 -0 -0 -0 -0 -198 -160 -120 -131 -180 -207 -218 -213 -216 -136 -176 -170 -195 -166 -153 -146 -139 -121 -91
-0 -0 -0 -0 -0 -0 -0 -0 -0 -0 -0 -0 -44 -0 -306 -245 -195 -193 -232 -326 -177 -0 -0 -0 -238 -172 -109 -128 -142 -159 -183 -249 -245 -233 -186 -179 -189 -186 -178 -159 -133 -102 -124 -156
-0 -0 -0 -0 -0 -0 -0 -0 -0 -0 -0 -126 -67 -91 -263 -200 -165 -171 -231 -309 -0 -0 -0 -213 -157 -137 -127 -96 -104 -132 -167 -189 -260 -234 -237 -215 -233 -201 -179 -130 -156 -208 -239 -138
-0 -17 -0 -0 -0 -0 -144 -0 -0 -0 -0 -0 -213 -97 -6 -298 -251 -182 -179 -231 -218 -238 -163 -123 -102 -108 -102 -110 -116 -119 -129 -165 -223 -246 -250 -256 -216 -191 -151 -151 -265 -272 -251 -236
-24 -83 -0 -0 -0 -0 -0 -164 -0 -172 -245 -177 -42 -94 -289 -240 -177 -164 -148 -170 -148 -146 -110 -119 -121 -126 -157 -118 -83 -91 -100 -135 -170 -192 -206 -199 -201 -193 -221 -212 -177 -168 -138 -102
-54 -132 -0 -32 -85 -12 -0 -214 -212 -188 -233 -299 -193 -223 -272 -186 -195 -155 -161 -146 -133 -138 -154 -164 -204 -265 -217 -90 -80 -96 -107 -117 -140 -177 -202 -201 -185 -195 -196 -201 -204 -179 -187 -190
-0 -28 -68 -23 -0 -0 -48 -101 -126 -162 -120 -321 -198 -284 -270 -247 -170 -136 -168 -141 -141 -142 -169 -241 -264 -274 -192 -101 -94 -72 -80 -76 -82 -85 -113 -122 -136 -184 -217 -219 -200 -171 -157 -176
-0 -0 -0 -0 -0 -0 -0 -134 -250 -273 -65 -216 -188 -192 -199 -180 -93 -107 -190 -159 -132 -177 -257 -263 -256 -258 -188 -125 -85 -68 -56 -67 -114 -110 -108 -173 -214 -211 -155 -133 -124 -157 -194 -213
-0 -0 -0 -72 -5 -0 -0 -243 -270 -51 -39 -207 -230 -204 -192 -111 -136 -164 -207 -171 -151 -265 -272 -251 -238 -206 -211 -194 -187 -145 -250 -261 -147 -110 -146 -180 -133 -123 -118 -119 -121 -175 -248 -254
-0 -32 -0 -0 -0 -28 -137 -218 -87 -119 -149 -261 -263 -259 -216 -286 -277 -181 -167 -165 -229 -225 -247 -243 -219 -192 -224 -192 -326 -264 -147 -109 -88 -88 -95 -111 -123 -137 -162 -197 -216 -149 -263 -259
-0 -0 -0 -0 -0 -0 -250 -133 -249 -297 -217 -297 -288 -356 -347 -275 -224 -188 -150 -183 -220 -220 -197 -226 -203 -179 -166 -153 -296 -230 -123 -117 -123 -117 -149 -191 -207 -182 -199 -200 -288 -103 -319 -0
-0 -0 -0 -18 -73 -100 -195 -270 -251 -287 -284 -395 -444 -375 -326 -229 -235 -202 -180 -202 -231 -227 -194 -185 -179 -146 -132 -154 -304 -173 -115 -110 -123 -180 -192 -202 -241 -236 -191 -352 -307 -297 -50 -0
-156 -199 -154 -130 -143 -206 -225 -298 -281 -335 -373 -324 -406 -339 -280 -227 -253 -197 -190 -203 -194 -206 -197 -207 -161 -123 -106 -149 -200 -156 -93 -84 -143 -156 -162 -147 -116 -98 -114 -225 -236 -148 -295 -0
-191 -101 -84 -37 -69 -61 -57 -221 -346 -262 -186 -264 -271 -331 -390 -252 -201 -230 -202 -190 -184 -182 -210 -202 -161 -111 -109 -125 -127 -124 -84 -59 -51 -96 -74 -54 -45 -43 -67 -97 -131 -0 -0 -0
Wind_Speed
14 17 19 15 13 19 14 10 12 15 15 13 12 13 19 22 22 22 23 26 28 29 29 28 29 28 28 27 25 25 25 24 24 23 22 21 19 18 17 16 15 14 14 14
15 16 10 12 11 11 12 12 15 15 14 13 14 13 19 20 22 23 24 25 27 29 28 29 28 27 28 26 26 25 25 24 24 23 22 21 19 18 17 17 16 14 14 14
18 18 19 18 16 11 12 12 7 16 13 13 13 16 17 19 19 23 23 24 26 27 29 29 28 28 27 27 25 24 24 23 23 24 23 22 19 17 16 15 14 13 13 15
21 18 17 15 10 12 11 12 11 15 13 14 13 15 17 20 22 21 25 24 26 26 27 28 29 28 27 26 25 24 24 23 23 24 23 21 20 18 17 18 19 12 10 12
20 20 21 19 17 16 14 18 16 14 12 13 15 14 15 18 19 22 25 27 27 25 23 25 31 32 29 24 22 22 22 23 22 22 22 21 20 17 17 17 16 11 9 9
28 22 21 15 16 15 17 19 15 13 13 13 12 13 14 17 17 19 22 26 28 29 26 23 29 31 31 22 20 21 20 21 20 20 20 21 20 17 16 15 16 8 9 8
25 24 17 11 12 10 12 13 14 12 11 12 12 13 13 15 14 14 18 23 26 29 28 29 28 32 30 19 18 18 19 20 20 19 18 19 19 16 13 10 8 7 9 8
18 20 14 10 18 8 11 14 13 14 16 15 14 14 15 15 11 11 13 19 24 22 21 25 31 32 26 13 14 14 19 21 18 19 18 16 17 18 15 11 6 7 6 8
21 21 17 13 15 8 8 10 14 16 15 15 15 17 16 16 13 12 15 15 19 18 13 14 15 22 15 2 11 16 19 20 22 21 18 16 14 15 15 12 6 4 4 8
19 24 16 13 12 15 12 8 13 18 17 17 15 15 15 16 15 13 16 15 13 12 8 3 14 13 14 13 8 17 21 20 19 21 20 17 16 15 12 8 8 5 4 8
18 19 18 16 14 11 13 14 16 16 19 19 19 18 12 17 15 15 14 15 14 13 11 2 7 12 12 16 17 16 18 16 13 15 18 14 11 12 8 3 3 2 3 5
12 17 28 28 22 20 20 19 13 20 22 21 20 17 15 16 15 16 16 15 17 16 14 3 5 12 16 21 20 19 4 6 8 7 12 15 5 1 4 0 7 10 8 13
7 18 23 22 21 21 21 20 20 18 20 26 23 20 18 13 12 15 16 17 18 19 20 16 2 14 16 20 20 19 10 4 5 2 8 7 9 0 1 9 16 17 17 17
8 14 16 19 16 16 20 18 14 16 21 20 14 25 12 10 10 13 17 19 21 23 20 18 12 8 13 16 19 22 20 3 3 3 5 3 4 3 7 11 17 19 21 22
9 15 17 22 23 19 20 22 19 21 18 23 28 17 5 10 11 12 17 19 18 19 16 14 10 10 16 18 18 18 18 19 10 7 5 6 8 11 15 17 18 19 20 18
15 18 16 19 20 21 24 22 21 27 30 33 26 25 6 9 8 9 13 17 15 12 11 12 12 12 14 18 18 18 18 17 14 11 10 12 13 13 15 16 17 18 19 20
18 11 15 21 18 21 27 24 25 24 20 16 20 19 5 7 9 10 11 14 11 12 11 12 12 14 16 18 17 16 15 14 13 13 14 13 12 12 13 14 17 19 20 20
20 13 17 22 20 28 24 19 24 26 19 7 9 4 7 9 5 6 6 11 10 10 12 13 14 16 16 15 16 16 15 15 14 13 13 13 13 13 14 16 17 18 19 21
18 14 21 22 23 26 24 18 20 16 19 3 3 6 6 5 4 4 5 5 10 10 10 13 15 16 16 16 16 15 15 15 14 13 13 13 13 14 15 16 17 18 19 21
13 16 18 18 25 33 31 21 8 13 29 2 4 7 11 5 2 2 8 8 9 8 10 12 14 15 16 16 16 16 16 16 16 15 15 15 16 16 17 18 18 19 20 21
10 19 21 21 24 27 29 18 6 19 23 6 1 5 8 9 5 5 10 8 8 10 11 14 14 15 15 16 18 18 19 19 21 24 21 19 18 19 19 18 19 20 21 21
6 11 23 23 24 28 8 13 15 19 18 15 4 9 5 3 1 10 13 14 10 10 10 14 15 15 15 15 17 20 20 21 20 19 18 19 19 20 19 19 20 20 21 21
26 7 15 12 24 22 4 22 17 21 17 13 3 1 1 0 2 9 13 13 10 7 8 12 13 14 15 16 18 18 18 19 18 17 17 18 18 19 18 19 20 21 20 20
21 17 29 23 22 32 6 18 17 13 16 11 7 3 0 2 6 9 16 17 16 4 4 7 11 12 14 14 16 17 16 16 15 15 15 16 17 18 18 19 19 20 20 19
18 12 18 25 27 25 26 18 15 17 14 12 7 4 0 3 6 11 17 20 20 21 15 12 11 10 11 11 14 16 15 14 12 13 14 15 16 16 16 16 15 16 18 17
18 17 16 25 10 20 24 7 10 15 10 7 7 7 5 3 11 13 19 20 18 21 16 12 9 9 9 10 13 14 13 11 10 11 12 14 15 14 14 12 12 14 15 16
Wind_Direction
349 3 58 77 100 58 142 250 296 315 293 341 34 74 129 139 149 151 146 159 165 174 181 184 188 194 199 202 202 196 190 193 194 200 207 207 194 190 195 196 178 166 163 165
332 320 147 76 84 107 144 220 309 333 304 11 300 330 145 138 150 153 156 157 167 178 184 190 196 197 198 201 201 193 190 194 190 192 206 209 203 197 204 217 194 162 159 162
299 288 348 21 36 83 140 175 22 308 328 325 285 253 140 152 154 171 172 173 179 178 182 192 198 199 200 198 192 184 186 186 186 190 201 213 203 201 200 203 176 149 150 179
274 291 353 27 129 75 128 125 74 357 288 244 269 219 164 156 169 169 181 176 178 178 184 192 197 199 193 194 190 187 189 182 187 187 193 190 192 200 207 223 238 148 134 160
272 290 288 293 19 92 75 48 46 352 283 285 251 286 240 139 169 179 181 184 185 181 174 181 198 205 199 186 174 172 175 178 179 182 187 189 190 184 200 219 209 152 85 53
249 281 284 319 331 52 39 44 351 316 313 266 355 350 299 137 163 176 183 187 189 191 186 177 198 209 208 179 168 172 169 172 172 179 185 188 187 184 191 197 207 92 108 121
258 260 296 352 2 318 72 347 310 309 323 281 339 300 214 147 129 152 174 185 186 188 187 190 189 212 202 168 164 164 166 172 175 177 179 183 187 181 181 171 153 146 57 95
273 268 294 336 264 35 71 303 328 279 289 294 266 230 259 141 160 160 178 178 180 178 172 178 188 197 183 158 158 159 173 184 179 183 182 179 185 194 191 180 138 145 125 47
263 270 286 305 312 1 9 142 307 280 251 257 258 252 237 205 167 148 109 123 161 167 168 169 172 254 268 258 155 169 181 190 196 196 187 183 180 185 193 186 155 123 69 17
268 262 284 316 318 297 307 19 306 259 286 268 250 246 228 180 174 146 103 93 116 142 160 206 260 258 264 278 302 177 190 195 194 196 196 190 187 185 183 168 176 152 64 9
264 265 269 295 302 314 295 302 305 299 264 271 274 274 175 164 104 105 114 95 104 113 119 328 264 251 266 281 292 301 187 180 175 181 188 185 177 179 168 138 139 137 29 15
269 268 257 264 286 290 285 286 292 275 260 280 256 243 238 150 74 71 74 109 113 92 102 52 284 264 271 275 290 301 118 148 156 151 170 185 169 135 169 62 347 345 348 340
260 264 264 278 288 287 283 283 280 291 293 259 272 252 351 10 45 43 72 106 117 124 116 109 10 265 276 273 285 304 331 147 150 137 164 168 180 185 193 335 329 331 333 334
268 266 264 271 295 303 283 284 285 290 287 299 326 299 2 55 56 54 85 101 115 127 113 115 94 330 303 297 298 300 305 355 163 176 179 198 204 311 336 342 336 331 330 333
273 267 272 278 285 290 288 281 286 280 288 289 282 314 70 107 98 84 99 99 86 91 81 81 44 342 290 297 313 317 316 309 325 328 328 326 328 328 320 333 337 341 337 346
282 280 279 278 281 285 281 285 288 280 271 259 287 285 54 100 69 80 100 100 80 48 24 18 35 36 323 293 307 315 318 327 339 342 341 339 336 337 332 337 345 350 3 14
280 295 280 277 281 287 281 281 286 290 286 287 284 294 89 93 104 104 102 107 79 64 40 34 11 356 339 319 325 334 338 348 352 352 355 0 2 3 4 6 2 4 8 14
280 287 285 281 282 274 291 301 285 281 288 286 301 13 118 113 81 84 75 100 81 72 52 34 18 352 349 5 10 5 357 352 354 356 358 6 12 13 10 5 6 7 14 20
283 285 278 278 275 277 281 306 289 283 279 177 15 97 106 89 41 7 79 83 91 69 44 44 44 26 23 20 10 11 8 11 8 3 2 8 20 23 20 18 21 27 29 27
281 281 281 283 271 259 269 287 328 293 232 160 100 122 127 115 136 136 130 115 98 65 46 43 52 40 43 32 32 30 34 31 30 31 33 29 32 37 38 41 39 35 36 42
273 270 265 272 274 265 241 277 318 255 248 284 223 149 147 151 281 117 131 126 110 86 71 68 59 55 53 51 61 59 69 57 76 97 62 49 46 46 45 39 33 38 43 45
218 250 263 267 266 258 320 281 271 253 280 291 152 148 151 360 83 134 137 135 125 104 88 87 69 61 56 61 74 85 78 96 83 62 49 56 53 53 44 36 43 43 41 47
247 226 259 266 268 279 116 265 274 262 288 296 89 287 233 293 167 147 148 144 137 123 102 93 75 71 73 86 102 95 96 92 81 62 53 56 58 50 35 47 48 45 55 54
273 266 253 267 274 244 235 281 268 293 301 313 327 330 241 162 159 157 149 146 139 152 121 101 87 79 78 81 98 108 95 90 69 58 58 57 58 53 40 41 48 51 53 55
276 261 266 267 264 264 264 273 274 284 301 318 339 341 19 146 156 155 148 146 144 144 134 124 108 90 85 70 90 114 101 94 59 61 60 64 87 86 72 80 86 76 62 63
268 268 261 262 280 266 261 178 263 280 302 332 335 325 295 178 154 156 151 146 141 144 134 121 101 92 83 75 87 100 95 83 62 58 66 82 116 136 139 137 120 87 77 74